Flag Weather past 2 weeks in Düren, North Rhine-Westphalia, Germany

Now
61 °F

Passing clouds.


Feels Like: 61 °F
Forecast: 52 / 67 °F
Wind: 3 mph from Southeast

Location: Noervenich

Current Time: Oct 31, 2014 at 7:50:50 PM

Latest Report: Oct 31, 2014 at 6:20 PM


Visibility: N/A

Pressure: 30.18 "Hg

Humidity: 77%

Dew point: 54 °F

Location of DürenLocation

Historic Weather in Düren — Graph

°F

Düren temperature yesterday

Maximum temperature yesterday: 61 °F (at 1:20 PM)
Minimum temperature yesterday: 52 °F (at 12:20 AM)
Average temperature yesterday: 55 °F

Past Weeks' High & Low Weather Summary

 TemperatureHumidityPressure
High75 °F (Oct 19, 2:20 PM)100% (Oct 25, 6:20 AM)30.30 "Hg (Oct 25, 6:20 AM)
Low34 °F (Oct 29, 5:20 AM)59% (Oct 26, 1:20 PM)29.53 "Hg (Oct 21, 4:20 PM)
Average54 °F85%30.08 "Hg
* Reported Oct 16 7:20 PM — Oct 31 6:20 PM, Düren, Weather by CustomWeather, © 2014

Note: Actual official high and low records may vary slightly from our data, if they occured in-between our weather recording intervals... More about our weather records

Advertising

Düren weather history for previous 24 hours

 ConditionsComfort  
Time TempWeatherWind HumidityBarometerVisibility
6:20 PM
Oct 31
61 °FPassing clouds.3 mph77%30.18 "HgN/A
5:20 PM63 °FPartly cloudy.3 mph77%30.18 "HgN/A
4:20 PM64 °FBroken clouds.2 mph78%30.18 "HgN/A
3:20 PM66 °FPartly sunny.2 mph73%30.18 "HgN/A
2:20 PM66 °FPartly sunny.6 mph73%30.18 "HgN/A
1:47 PM66 °FPartly sunny.5 mph73%30.18 "HgN/A
1:20 PM64 °FPartly sunny.5 mph73%30.21 "HgN/A
12:20 PM63 °FBroken clouds.5 mph77%30.21 "HgN/A
11:20 AM61 °FPartly sunny.5 mph83%30.24 "HgN/A
10:20 AM59 °FBroken clouds.2 mph82%30.21 "HgN/A
9:20 AM57 °FPartly sunny.2 mph88%30.21 "HgN/A
8:20 AM55 °FPartly sunny.2 mph88%30.21 "HgN/A
7:20 AM55 °FPassing clouds.2 mph88%30.18 "HgN/A
6:20 AM54 °FPassing clouds.1 mph88%30.21 "HgN/A
5:20 AM52 °FPassing clouds.2 mph94%30.21 "Hg6 mi
4:20 AM54 °FPassing clouds.2 mph88%30.21 "HgN/A
3:20 AM54 °FPassing clouds.2 mph88%30.21 "HgN/A
2:20 AM54 °FPassing clouds.1 mph88%30.21 "HgN/A
1:20 AM54 °FPassing clouds.2 mph94%30.21 "HgN/A
12:20 AM54 °FPassing clouds.2 mph88%30.21 "HgN/A
11:20 PM
Oct 30
54 °FPassing clouds.1 mph94%30.21 "HgN/A
10:20 PM55 °FPassing clouds.5 mph88%30.21 "HgN/A
9:20 PM57 °FPassing clouds.1 mph82%30.21 "HgN/A
8:20 PM57 °FPartly cloudy.2 mph88%30.21 "HgN/A
7:20 PM57 °FPassing clouds.1 mph88%30.21 "HgN/A
Weather by CustomWeather, © 2014

See weather overviewHow to use our weather pages